[Date Prev][Date Next][Thread Prev][Thread Next] - [Date Index][Thread Index][Author Index]
2 Line ISS Keps 3-27
- Subject: [sarex] 2 Line ISS Keps 3-27
- From: "Dave Larsen PhD" <doc@xxxxxxxxxxx>
- Date: Sat, 26 Mar 2005 18:39:44 -0800
ISS
1 25544U 98067A 05086.04268286 .00057371 00000-0 46151-3 0 1046
2 25544 051.6557 321.2056 0005909 296.2509 219.4899 15.70355233362766
----
Via the sarex mailing list at AMSAT.ORG courtesy of AMSAT-NA.
To unsubscribe, send "unsubscribe sarex" to Majordomo@amsat.org
AMSAT Home